| time (UTC) | temp C | wind direction | speed KPH | gust KPH | rain 1hr cm | rain 24hr cm | rain mn cm | humidity % | barometer mb |
| 20260504194633 | 21 | 140 | 9.7 | 0.0 | 0.00 | 0.00 | 0.00 | 65 | 1012.0 |
| 20260504194327 | 21 | 140 | 9.7 | 0.0 | 0.00 | 0.00 | 0.00 | 65 | 1012.0 |
| 20260504194025 | 23 | 140 | 9.7 | 0.0 | 0.00 | 0.00 | 0.00 | 65 | 1012.0 |
| 20260504193723 | 25 | 140 | 9.7 | 0.0 | 0.00 | 0.00 | 0.00 | 65 | 1012.0 |
| 20260504193044 | 21 | 140 | 9.7 | 0.0 | 0.00 | 0.00 | 0.00 | 65 | 1012.0 |
| 20260504192737 | 21 | 140 | 9.7 | 0.0 | 0.00 | 0.00 | 0.00 | 65 | 1012.0 |
| 20260504192434 | 23 | 140 | 9.7 | 0.0 | 0.00 | 0.00 | 0.00 | 65 | 1012.0 |
| 20260504192128 | 23 | 140 | 9.7 | 0.0 | 0.00 | 0.00 | 0.00 | 65 | 1012.0 |
| 20260504191821 | 25 | 140 | 9.7 | 0.0 | 0.00 | 0.00 | 0.00 | 65 | 1012.0 |
| 20260504191514 | 22 | 140 | 14.5 | 0.0 | 0.00 | 0.00 | 0.00 | 69 | 1012.0 |
| 20260504191213 | 25 | 140 | 9.7 | 0.0 | 0.00 | 0.00 | 0.00 | 65 | 1012.0 |
| 20260504190905 | 22 | 140 | 14.5 | 0.0 | 0.00 | 0.00 | 0.00 | 69 | 1012.0 |
| 20260504190245 | 24 | 140 | 14.5 | 0.0 | 0.00 | 0.00 | 0.00 | 69 | 1013.0 |
| 20260504185941 | 24 | 140 | 14.5 | 0.0 | 0.00 | 0.00 | 0.00 | 69 | 1013.0 |
| 20260504185634 | 22 | 140 | 14.5 | 0.0 | 0.00 | 0.00 | 0.00 | 69 | 1013.0 |
| 20260504185031 | 24 | 140 | 14.5 | 0.0 | 0.00 | 0.00 | 0.00 | 69 | 1013.0 |
| 20260504184728 | 24 | 140 | 14.5 | 0.0 | 0.00 | 0.00 | 0.00 | 69 | 1013.0 |
| 20260504184420 | 22 | 140 | 14.5 | 0.0 | 0.00 | 0.00 | 0.00 | 69 | 1013.0 |
| 20260504184048 | 24 | 140 | 14.5 | 0.0 | 0.00 | 0.00 | 0.00 | 69 | 1013.0 |
| 20260504183745 | 22 | 140 | 14.5 | 0.0 | 0.00 | 0.00 | 0.00 | 69 | 1013.0 |
| 20260504183438 | 22 | 140 | 14.5 | 0.0 | 0.00 | 0.00 | 0.00 | 69 | 1013.0 |
| 20260504183135 | 24 | 140 | 14.5 | 0.0 | 0.00 | 0.00 | 0.00 | 69 | 1013.0 |
| 20260504182829 | 22 | 140 | 14.5 | 0.0 | 0.00 | 0.00 | 0.00 | 69 | 1014.0 |
| 20260504182522 | 22 | 140 | 14.5 | 0.0 | 0.00 | 0.00 | 0.00 | 69 | 1014.0 |
| 20260504182217 | 24 | 140 | 14.5 | 0.0 | 0.00 | 0.00 | 0.00 | 69 | 1014.0 |
| 20260504181914 | 22 | 140 | 14.5 | 0.0 | 0.00 | 0.00 | 0.00 | 69 | 1014.0 |
| 20260504181613 | 24 | 140 | 14.5 | 0.0 | 0.00 | 0.00 | 0.00 | 69 | 1014.0 |
| 20260504181309 | 24 | 140 | 14.5 | 0.0 | 0.00 | 0.00 | 0.00 | 69 | 1014.0 |
| 20260504181000 | 21 | 140 | 12.9 | 0.0 | 0.00 | 0.00 | 0.00 | 69 | 1014.0 |
| 20260504180653 | 24 | 140 | 14.5 | 0.0 | 0.00 | 0.00 | 0.00 | 69 | 1014.0 |
| 20260504180352 | 21 | 140 | 12.9 | 0.0 | 0.00 | 0.00 | 0.00 | 69 | 1014.0 |
| 20260504180046 | 21 | 140 | 12.9 | 0.0 | 0.00 | 0.00 | 0.00 | 69 | 1014.0 |
| 20260504175739 | 23 | 140 | 12.9 | 0.0 | 0.00 | 0.00 | 0.00 | 69 | 1014.0 |
| 20260504175433 | 23 | 140 | 12.9 | 0.0 | 0.00 | 0.00 | 0.00 | 69 | 1014.0 |
| 20260504175129 | 25 | 140 | 12.9 | 0.0 | 0.00 | 0.00 | 0.00 | 69 | 1014.0 |
| 20260504174823 | 25 | 140 | 12.9 | 0.0 | 0.00 | 0.00 | 0.00 | 69 | 1014.0 |
| 20260504174516 | 25 | 140 | 12.9 | 0.0 | 0.00 | 0.00 | 0.00 | 69 | 1014.0 |
| 20260504174210 | 25 | 140 | 12.9 | 0.0 | 0.00 | 0.00 | 0.00 | 69 | 1014.0 |
| 20260504173908 | 25 | 140 | 12.9 | 0.0 | 0.00 | 0.00 | 0.00 | 69 | 1014.0 |
| 20260504173602 | 21 | 140 | 12.9 | 0.0 | 0.00 | 0.00 | 0.00 | 69 | 1014.0 |
| 20260504173300 | 23 | 140 | 12.9 | 0.0 | 0.00 | 0.00 | 0.00 | 69 | 1015.0 |
| 20260504172958 | 23 | 140 | 12.9 | 0.0 | 0.00 | 0.00 | 0.00 | 69 | 1015.0 |
| 20260504172652 | 23 | 140 | 12.9 | 0.0 | 0.00 | 0.00 | 0.00 | 69 | 1015.0 |
| 20260504172345 | 23 | 140 | 12.9 | 0.0 | 0.00 | 0.00 | 0.00 | 69 | 1015.0 |
| 20260504172044 | 25 | 140 | 12.9 | 0.0 | 0.00 | 0.00 | 0.00 | 69 | 1015.0 |
| 20260504171741 | 23 | 140 | 12.9 | 0.0 | 0.00 | 0.00 | 0.00 | 69 | 1015.0 |
| 20260504171429 | 25 | 140 | 12.9 | 0.0 | 0.00 | 0.00 | 0.00 | 69 | 1015.0 |
| 20260504171119 | 25 | 140 | 12.9 | 0.0 | 0.00 | 0.00 | 0.00 | 69 | 1015.0 |
| 20260504170806 | 22 | 140 | 6.4 | 0.0 | 0.00 | 0.00 | 0.00 | 69 | 1015.0 |
| 20260504170504 | 24 | 140 | 6.4 | 0.0 | 0.00 | 0.00 | 0.00 | 69 | 1015.0 |
| 20260504170157 | 24 | 140 | 6.4 | 0.0 | 0.00 | 0.00 | 0.00 | 69 | 1015.0 |
| 20260504160318 | 22 | 0 | 3.2 | 0.0 | 0.00 | 0.00 | 0.00 | 65 | 1016.0 |
| 20260504151024 | 21 | 280 | 9.7 | 0.0 | 0.00 | 0.00 | 0.00 | 83 | 1017.0 |
| 20260504150717 | 21 | 280 | 9.7 | 0.0 | 0.00 | 0.00 | 0.00 | 83 | 1017.0 |
| 20260504150416 | 19 | 280 | 9.7 | 0.0 | 0.00 | 0.00 | 0.00 | 83 | 1017.0 |
| 20260504150114 | 19 | 280 | 9.7 | 0.0 | 0.00 | 0.00 | 0.00 | 83 | 1017.0 |
| 20260504141125 | 19 | 0 | 3.2 | 0.0 | 0.00 | 0.00 | 0.00 | 94 | 1017.0 |
| 20260504140816 | 21 | 280 | 9.7 | 0.0 | 0.00 | 0.00 | 0.00 | 83 | 1017.0 |
| 20260504140154 | 19 | 0 | 3.2 | 0.0 | 0.00 | 0.00 | 0.00 | 94 | 1017.0 |
| 20260504130815 | 17 | 320 | 6.4 | 0.0 | 0.00 | 0.00 | 0.00 | 94 | 1017.0 |
| 20260504130514 | 19 | 320 | 6.4 | 0.0 | 0.00 | 0.00 | 0.00 | 94 | 1017.0 |
| 20260504130209 | 19 | 320 | 6.4 | 0.0 | 0.00 | 0.00 | 0.00 | 94 | 1017.0 |
| 20260504120305 | 16 | 0 | 3.2 | 0.0 | 0.00 | 0.00 | 0.00 | 10 | 1016.0 |
| 20260504110710 | 16 | 30 | 4.8 | 0.0 | 0.00 | 0.00 | 0.00 | 10 | 1016.0 |
| 20260504110407 | 16 | 30 | 4.8 | 0.0 | 0.00 | 0.00 | 0.00 | 10 | 1016.0 |
| 20260504100445 | 16 | 280 | 8.0 | 0.0 | 0.00 | 0.00 | 0.00 | 94 | 1015.0 |
| 20260504100136 | 16 | 280 | 8.0 | 0.0 | 0.00 | 0.00 | 0.00 | 94 | 1015.0 |
| 20260504081830 | 17 | 300 | 6.4 | 0.0 | 0.15 | 0.00 | 0.00 | 94 | 1015.0 |
| 20260504081521 | 19 | 300 | 6.4 | 0.0 | 0.15 | 0.00 | 0.00 | 94 | 1015.0 |
| 20260504081213 | 17 | 300 | 6.4 | 0.0 | 0.15 | 0.00 | 0.00 | 94 | 1015.0 |
| 20260504080859 | 17 | 300 | 6.4 | 0.0 | 0.15 | 0.00 | 0.00 | 94 | 1015.0 |
| 20260504080550 | 17 | 300 | 6.4 | 0.0 | 0.15 | 0.00 | 0.00 | 94 | 1015.0 |
| 20260504080241 | 19 | 300 | 6.4 | 0.0 | 0.08 | 0.00 | 0.00 | 94 | 1015.0 |
| 20260504070332 | 19 | 0 | 3.2 | 0.0 | 0.00 | 0.00 | 0.00 | 78 | 1016.0 |
| 20260504060127 | 20 | 0 | 4.8 | 0.0 | 0.00 | 0.00 | 0.00 | 10 | 1016.0 |
| 20260504050159 | 16 | 318 | 4.8 | 4.8 | 0.00 | 0.00 | 0.00 | 90 | 1017.0 |
| 20260504045851 | 16 | 318 | 4.8 | 4.8 | 0.00 | 0.00 | 0.00 | 90 | 1017.0 |
| 20260504045545 | 16 | 318 | 4.8 | 4.8 | 0.00 | 0.00 | 0.00 | 90 | 1017.0 |
| 20260504045238 | 16 | 318 | 4.8 | 4.8 | 0.00 | 0.00 | 0.00 | 90 | 1017.0 |
| 20260504044927 | 16 | 318 | 4.8 | 4.8 | 0.00 | 0.00 | 0.00 | 90 | 1017.0 |
| 20260504044610 | 16 | 318 | 4.8 | 4.8 | 0.00 | 0.00 | 0.00 | 90 | 1017.0 |
| 20260504044309 | 16 | 318 | 4.8 | 4.8 | 0.00 | 0.00 | 0.00 | 90 | 1017.0 |
| 20260504043957 | 16 | 318 | 4.8 | 4.8 | 0.00 | 0.00 | 0.00 | 90 | 1017.0 |
| 20260504043651 | 16 | 318 | 4.8 | 4.8 | 0.00 | 0.00 | 0.00 | 90 | 1017.0 |
| 20260504043348 | 16 | 318 | 4.8 | 4.8 | 0.00 | 0.00 | 0.00 | 90 | 1017.0 |
| 20260504043040 | 16 | 328 | 8.0 | 4.8 | 0.00 | 0.00 | 0.00 | 86 | 1017.0 |
| 20260504042733 | 16 | 328 | 8.0 | 4.8 | 0.00 | 0.00 | 0.00 | 86 | 1017.0 |
| 20260504042423 | 16 | 328 | 8.0 | 4.8 | 0.00 | 0.00 | 0.00 | 86 | 1017.0 |
| 20260504042116 | 16 | 328 | 8.0 | 4.8 | 0.00 | 0.00 | 0.00 | 86 | 1017.0 |
| 20260504041810 | 16 | 0 | 1.6 | 0.0 | 0.00 | 0.00 | 0.00 | 78 | 1017.0 |
| 20260504041458 | 16 | 0 | 1.6 | 0.0 | 0.00 | 0.00 | 0.00 | 78 | 1017.0 |
| 20260504041152 | 18 | 0 | 1.6 | 0.0 | 0.00 | 0.00 | 0.00 | 78 | 1017.0 |
| 20260504040850 | 20 | 0 | 1.6 | 0.0 | 0.00 | 0.00 | 0.00 | 78 | 1017.0 |
| 20260504040543 | 22 | 0 | 1.6 | 0.0 | 0.00 | 0.00 | 0.00 | 78 | 1017.0 |
| 20260504040242 | 20 | 0 | 1.6 | 0.0 | 0.00 | 0.00 | 0.00 | 78 | 1017.0 |
| 20260504035939 | 20 | 0 | 1.6 | 0.0 | 0.00 | 0.00 | 0.00 | 78 | 1017.0 |
| 20260504035637 | 22 | 0 | 1.6 | 0.0 | 0.00 | 0.00 | 0.00 | 78 | 1017.0 |
| 20260504035336 | 22 | 0 | 1.6 | 0.0 | 0.00 | 0.00 | 0.00 | 78 | 1017.0 |
| 20260504035027 | 20 | 0 | 1.6 | 0.0 | 0.00 | 0.00 | 0.00 | 78 | 1017.0 |
| 20260504034720 | 22 | 0 | 1.6 | 0.0 | 0.00 | 0.00 | 0.00 | 78 | 1017.0 |
| 20260504034414 | 22 | 0 | 1.6 | 0.0 | 0.00 | 0.00 | 0.00 | 78 | 1017.0 |
| 20260504034103 | 22 | 0 | 1.6 | 0.0 | 0.00 | 0.00 | 0.00 | 78 | 1017.0 |
| 20260504033759 | 16 | 0 | 1.6 | 0.0 | 0.00 | 0.00 | 0.00 | 78 | 1017.0 |
| 20260504033441 | 16 | 0 | 1.6 | 0.0 | 0.00 | 0.00 | 0.00 | 78 | 1017.0 |
| 20260504033125 | 18 | 0 | 1.6 | 0.0 | 0.00 | 0.00 | 0.00 | 78 | 1017.0 |
| 20260504032818 | 20 | 0 | 1.6 | 0.0 | 0.00 | 0.00 | 0.00 | 78 | 1017.0 |
| 20260504032511 | 22 | 0 | 1.6 | 0.0 | 0.00 | 0.00 | 0.00 | 78 | 1017.0 |
| 20260504032204 | 20 | 0 | 1.6 | 0.0 | 0.00 | 0.00 | 0.00 | 78 | 1017.0 |
| 20260504031901 | 22 | 0 | 1.6 | 0.0 | 0.00 | 0.00 | 0.00 | 78 | 1017.0 |
| 20260504031554 | 16 | 280 | 4.8 | 0.0 | 0.00 | 0.00 | 0.00 | 78 | 1017.0 |
| 20260504031245 | 16 | 280 | 4.8 | 0.0 | 0.00 | 0.00 | 0.00 | 78 | 1017.0 |
| 20260504030938 | 18 | 280 | 4.8 | 0.0 | 0.00 | 0.00 | 0.00 | 78 | 1017.0 |
| 20260504030632 | 16 | 280 | 4.8 | 0.0 | 0.00 | 0.00 | 0.00 | 78 | 1017.0 |
| 20260504030329 | 18 | 280 | 4.8 | 0.0 | 0.00 | 0.00 | 0.00 | 78 | 1017.0 |
| 20260504030014 | 18 | 280 | 4.8 | 0.0 | 0.00 | 0.00 | 0.00 | 78 | 1017.0 |
| 20260504025712 | 20 | 280 | 4.8 | 0.0 | 0.00 | 0.00 | 0.00 | 78 | 1017.0 |
| 20260504025407 | 20 | 280 | 4.8 | 0.0 | 0.00 | 0.00 | 0.00 | 78 | 1017.0 |
| 20260504025100 | 22 | 280 | 4.8 | 0.0 | 0.00 | 0.00 | 0.00 | 78 | 1017.0 |
| 20260504024736 | 22 | 280 | 4.8 | 0.0 | 0.00 | 0.00 | 0.00 | 78 | 1017.0 |
| 20260504024429 | 16 | 280 | 4.8 | 0.0 | 0.00 | 0.00 | 0.00 | 78 | 1017.0 |
| 20260504024121 | 22 | 280 | 4.8 | 0.0 | 0.00 | 0.00 | 0.00 | 78 | 1017.0 |
| 20260504023819 | 16 | 280 | 4.8 | 0.0 | 0.00 | 0.00 | 0.00 | 78 | 1017.0 |
| 20260504023511 | 16 | 280 | 4.8 | 0.0 | 0.00 | 0.00 | 0.00 | 78 | 1017.0 |
| 20260504023205 | 16 | 280 | 4.8 | 0.0 | 0.00 | 0.00 | 0.00 | 78 | 1017.0 |
| 20260504022903 | 18 | 280 | 4.8 | 0.0 | 0.00 | 0.00 | 0.00 | 78 | 1016.0 |
| 20260504022602 | 20 | 280 | 4.8 | 0.0 | 0.00 | 0.00 | 0.00 | 78 | 1016.0 |
| 20260504022255 | 20 | 280 | 4.8 | 0.0 | 0.00 | 0.00 | 0.00 | 78 | 1016.0 |
| 20260504021953 | 22 | 280 | 4.8 | 0.0 | 0.00 | 0.00 | 0.00 | 78 | 1016.0 |
| 20260504021646 | 20 | 280 | 4.8 | 0.0 | 0.00 | 0.00 | 0.00 | 78 | 1016.0 |
| 20260504021335 | 22 | 280 | 4.8 | 0.0 | 0.00 | 0.00 | 0.00 | 78 | 1016.0 |
| 20260504021028 | 22 | 280 | 4.8 | 0.0 | 0.00 | 0.00 | 0.00 | 78 | 1016.0 |
| 20260504020721 | 16 | 0 | 3.2 | 0.0 | 0.00 | 0.00 | 0.00 | 78 | 1016.0 |
| 20260504020418 | 16 | 0 | 3.2 | 0.0 | 0.00 | 0.00 | 0.00 | 78 | 1016.0 |
| 20260504020109 | 18 | 0 | 3.2 | 0.0 | 0.00 | 0.00 | 0.00 | 78 | 1016.0 |
| 20260504015808 | 18 | 0 | 3.2 | 0.0 | 0.00 | 0.00 | 0.00 | 78 | 1016.0 |
| 20260504015501 | 20 | 0 | 3.2 | 0.0 | 0.00 | 0.00 | 0.00 | 78 | 1016.0 |
| 20260504015155 | 22 | 0 | 3.2 | 0.0 | 0.00 | 0.00 | 0.00 | 78 | 1016.0 |
| 20260504014845 | 22 | 0 | 3.2 | 0.0 | 0.00 | 0.00 | 0.00 | 78 | 1016.0 |
| 20260504014537 | 16 | 0 | 3.2 | 0.0 | 0.00 | 0.00 | 0.00 | 78 | 1016.0 |
| 20260504014226 | 16 | 0 | 3.2 | 0.0 | 0.00 | 0.00 | 0.00 | 78 | 1016.0 |
| 20260504013919 | 18 | 0 | 3.2 | 0.0 | 0.00 | 0.00 | 0.00 | 78 | 1015.0 |
| 20260504012937 | 18 | 0 | 3.2 | 0.0 | 0.00 | 0.00 | 0.00 | 78 | 1015.0 |
| 20260504012635 | 20 | 0 | 3.2 | 0.0 | 0.00 | 0.00 | 0.00 | 78 | 1015.0 |
| 20260504012332 | 22 | 0 | 3.2 | 0.0 | 0.00 | 0.00 | 0.00 | 78 | 1015.0 |
| 20260504012031 | 20 | 0 | 3.2 | 0.0 | 0.00 | 0.00 | 0.00 | 78 | 1015.0 |
| 20260504011729 | 22 | 0 | 3.2 | 0.0 | 0.00 | 0.00 | 0.00 | 78 | 1015.0 |
| 20260504011428 | 22 | 0 | 3.2 | 0.0 | 0.00 | 0.00 | 0.00 | 78 | 1015.0 |
| 20260504010739 | 17 | 0 | 3.2 | 0.0 | 0.00 | 0.00 | 0.00 | 73 | 1015.0 |
| 20260504010124 | 19 | 0 | 3.2 | 0.0 | 0.00 | 0.00 | 0.00 | 73 | 1015.0 |
| 20260504005816 | 21 | 0 | 3.2 | 0.0 | 0.00 | 0.00 | 0.00 | 73 | 1015.0 |
| 20260504005514 | 23 | 0 | 3.2 | 0.0 | 0.00 | 0.00 | 0.00 | 73 | 1015.0 |
| 20260504005212 | 23 | 0 | 3.2 | 0.0 | 0.00 | 0.00 | 0.00 | 73 | 1015.0 |
| 20260504004512 | 17 | 140 | 4.8 | 0.0 | 0.00 | 0.00 | 0.00 | 69 | 1015.0 |
| 20260504004203 | 17 | 140 | 4.8 | 0.0 | 0.00 | 0.00 | 0.00 | 69 | 1015.0 |
| 20260504003900 | 20 | 140 | 4.8 | 0.0 | 0.00 | 0.00 | 0.00 | 69 | 1014.0 |
| 20260504003554 | 17 | 140 | 4.8 | 0.0 | 0.00 | 0.00 | 0.00 | 69 | 1015.0 |
| 20260504003250 | 20 | 140 | 4.8 | 0.0 | 0.00 | 0.00 | 0.00 | 69 | 1014.0 |
| 20260504002948 | 20 | 140 | 4.8 | 0.0 | 0.00 | 0.00 | 0.00 | 69 | 1014.0 |
| 20260504002644 | 20 | 140 | 4.8 | 0.0 | 0.00 | 0.00 | 0.00 | 69 | 1014.0 |
| 20260504002335 | 22 | 140 | 4.8 | 0.0 | 0.00 | 0.00 | 0.00 | 69 | 1014.0 |
| 20260504002024 | 20 | 140 | 4.8 | 0.0 | 0.00 | 0.00 | 0.00 | 69 | 1014.0 |
| 20260504001722 | 22 | 140 | 4.8 | 0.0 | 0.00 | 0.00 | 0.00 | 69 | 1014.0 |
| 20260504001411 | 24 | 140 | 4.8 | 0.0 | 0.00 | 0.00 | 0.00 | 69 | 1014.0 |
| 20260504001109 | 24 | 140 | 4.8 | 0.0 | 0.00 | 0.00 | 0.00 | 69 | 1014.0 |
| 20260504000808 | 24 | 140 | 4.8 | 0.0 | 0.00 | 0.00 | 0.00 | 69 | 1014.0 |
| 20260504000458 | 17 | 140 | 4.8 | 0.0 | 0.00 | 0.00 | 0.00 | 69 | 1014.0 |
| 20260504000152 | 17 | 140 | 4.8 | 0.0 | 0.00 | 0.00 | 0.00 | 69 | 1014.0 |
| 20260503235849 | 20 | 140 | 4.8 | 0.0 | 0.00 | 0.00 | 0.00 | 69 | 1014.0 |
| 20260503235542 | 17 | 140 | 4.8 | 0.0 | 0.00 | 0.00 | 0.00 | 69 | 1014.0 |
| 20260503235235 | 20 | 140 | 4.8 | 0.0 | 0.00 | 0.00 | 0.00 | 69 | 1014.0 |
| 20260503234933 | 20 | 140 | 4.8 | 0.0 | 0.00 | 0.00 | 0.00 | 69 | 1014.0 |
| 20260503234631 | 22 | 140 | 4.8 | 0.0 | 0.00 | 0.00 | 0.00 | 69 | 1014.0 |
| 20260503234329 | 22 | 140 | 4.8 | 0.0 | 0.00 | 0.00 | 0.00 | 69 | 1014.0 |
| 20260503234028 | 22 | 140 | 4.8 | 0.0 | 0.00 | 0.00 | 0.00 | 69 | 1014.0 |
| 20260503233719 | 22 | 140 | 4.8 | 0.0 | 0.00 | 0.00 | 0.00 | 69 | 1014.0 |
| 20260503233414 | 24 | 140 | 4.8 | 0.0 | 0.00 | 0.00 | 0.00 | 69 | 1013.0 |
| 20260503233108 | 24 | 140 | 4.8 | 0.0 | 0.00 | 0.00 | 0.00 | 69 | 1013.0 |
| 20260503232752 | 22 | 140 | 4.8 | 0.0 | 0.00 | 0.00 | 0.00 | 69 | 1013.0 |
| 20260503232446 | 24 | 140 | 4.8 | 0.0 | 0.00 | 0.00 | 0.00 | 69 | 1013.0 |
| 20260503232144 | 18 | 150 | 6.4 | 0.0 | 0.00 | 0.00 | 0.00 | 65 | 1013.0 |
| 20260503231842 | 18 | 150 | 6.4 | 0.0 | 0.00 | 0.00 | 0.00 | 65 | 1013.0 |
| 20260503231536 | 21 | 150 | 6.4 | 0.0 | 0.00 | 0.00 | 0.00 | 65 | 1013.0 |
| 20260503231235 | 21 | 150 | 6.4 | 0.0 | 0.00 | 0.00 | 0.00 | 65 | 1013.0 |
| 20260503230933 | 21 | 150 | 6.4 | 0.0 | 0.00 | 0.00 | 0.00 | 65 | 1013.0 |
| 20260503230626 | 23 | 150 | 6.4 | 0.0 | 0.00 | 0.00 | 0.00 | 65 | 1013.0 |
| 20260503230323 | 25 | 150 | 6.4 | 0.0 | 0.00 | 0.00 | 0.00 | 65 | 1013.0 |
| 20260503230013 | 25 | 150 | 6.4 | 0.0 | 0.00 | 0.00 | 0.00 | 65 | 1013.0 |
| 20260503225711 | 25 | 150 | 6.4 | 0.0 | 0.00 | 0.00 | 0.00 | 65 | 1013.0 |
| 20260503225052 | 18 | 150 | 6.4 | 0.0 | 0.00 | 0.00 | 0.00 | 65 | 1013.0 |
| 20260503224750 | 18 | 150 | 6.4 | 0.0 | 0.00 | 0.00 | 0.00 | 65 | 1013.0 |
| 20260503224449 | 21 | 150 | 6.4 | 0.0 | 0.00 | 0.00 | 0.00 | 65 | 1012.0 |
| 20260503224148 | 21 | 150 | 6.4 | 0.0 | 0.00 | 0.00 | 0.00 | 65 | 1012.0 |
| 20260503223847 | 21 | 150 | 6.4 | 0.0 | 0.00 | 0.00 | 0.00 | 65 | 1012.0 |
| 20260503223544 | 21 | 150 | 6.4 | 0.0 | 0.00 | 0.00 | 0.00 | 65 | 1012.0 |
| 20260503222259 | 23 | 150 | 6.4 | 0.0 | 0.00 | 0.00 | 0.00 | 65 | 1012.0 |
| 20260503221952 | 25 | 150 | 6.4 | 0.0 | 0.00 | 0.00 | 0.00 | 65 | 1012.0 |
| 20260503221330 | 21 | 150 | 8.0 | 0.0 | 0.00 | 0.00 | 0.00 | 65 | 1012.0 |
| 20260503220722 | 23 | 150 | 8.0 | 0.0 | 0.00 | 0.00 | 0.00 | 65 | 1012.0 |
| 20260503220111 | 25 | 150 | 8.0 | 0.0 | 0.00 | 0.00 | 0.00 | 65 | 1012.0 |
| 20260503215124 | 21 | 150 | 8.0 | 0.0 | 0.00 | 0.00 | 0.00 | 65 | 1012.0 |
| 20260503214512 | 21 | 150 | 8.0 | 0.0 | 0.00 | 0.00 | 0.00 | 65 | 1012.0 |
| 20260503214210 | 21 | 150 | 8.0 | 0.0 | 0.00 | 0.00 | 0.00 | 65 | 1012.0 |
| 20260503213907 | 23 | 150 | 8.0 | 0.0 | 0.00 | 0.00 | 0.00 | 65 | 1012.0 |
| 20260503213606 | 23 | 150 | 8.0 | 0.0 | 0.00 | 0.00 | 0.00 | 65 | 1012.0 |
| 20260503213304 | 25 | 150 | 8.0 | 0.0 | 0.00 | 0.00 | 0.00 | 65 | 1011.0 |
| 20260503213001 | 23 | 150 | 8.0 | 0.0 | 0.00 | 0.00 | 0.00 | 65 | 1012.0 |
| 20260503212700 | 25 | 150 | 8.0 | 0.0 | 0.00 | 0.00 | 0.00 | 65 | 1011.0 |
| 20260503212358 | 21 | 150 | 8.0 | 0.0 | 0.00 | 0.00 | 0.00 | 65 | 1011.0 |
| 20260503212044 | 21 | 150 | 8.0 | 0.0 | 0.00 | 0.00 | 0.00 | 65 | 1011.0 |
| 20260503211742 | 23 | 150 | 8.0 | 0.0 | 0.00 | 0.00 | 0.00 | 65 | 1011.0 |
| 20260503211441 | 25 | 150 | 8.0 | 0.0 | 0.00 | 0.00 | 0.00 | 65 | 1012.0 |
| 20260503211139 | 25 | 150 | 8.0 | 0.0 | 0.00 | 0.00 | 0.00 | 65 | 1012.0 |
| 20260503210838 | 25 | 150 | 8.0 | 0.0 | 0.00 | 0.00 | 0.00 | 65 | 1012.0 |
| 20260503210536 | 22 | 150 | 12.9 | 0.0 | 0.00 | 0.00 | 0.00 | 61 | 1012.0 |
| 20260503205926 | 24 | 150 | 12.9 | 0.0 | 0.00 | 0.00 | 0.00 | 61 | 1012.0 |
| 20260503205624 | 22 | 150 | 12.9 | 0.0 | 0.00 | 0.00 | 0.00 | 61 | 1012.0 |
| 20260503205317 | 24 | 150 | 12.9 | 0.0 | 0.00 | 0.00 | 0.00 | 61 | 1012.0 |
| 20260503205014 | 24 | 150 | 12.9 | 0.0 | 0.00 | 0.00 | 0.00 | 61 | 1012.0 |
| 20260503204712 | 26 | 150 | 12.9 | 0.0 | 0.00 | 0.00 | 0.00 | 61 | 1012.0 |
| 20260503204411 | 26 | 150 | 12.9 | 0.0 | 0.00 | 0.00 | 0.00 | 61 | 1012.0 |
| 20260503204107 | 22 | 150 | 12.9 | 0.0 | 0.00 | 0.00 | 0.00 | 61 | 1012.0 |
| 20260503203805 | 24 | 150 | 12.9 | 0.0 | 0.00 | 0.00 | 0.00 | 61 | 1012.0 |
| 20260503203502 | 24 | 150 | 12.9 | 0.0 | 0.00 | 0.00 | 0.00 | 61 | 1012.0 |
| 20260503203152 | 22 | 150 | 12.9 | 0.0 | 0.00 | 0.00 | 0.00 | 61 | 1012.0 |
| 20260503202851 | 24 | 150 | 12.9 | 0.0 | 0.00 | 0.00 | 0.00 | 61 | 1012.0 |
| 20260503202549 | 26 | 150 | 12.9 | 0.0 | 0.00 | 0.00 | 0.00 | 61 | 1012.0 |
| 20260503201933 | 26 | 150 | 12.9 | 0.0 | 0.00 | 0.00 | 0.00 | 61 | 1012.0 |
| 20260503201631 | 26 | 150 | 12.9 | 0.0 | 0.00 | 0.00 | 0.00 | 61 | 1012.0 |
| 20260503201330 | 22 | 150 | 12.9 | 0.0 | 0.00 | 0.00 | 0.00 | 61 | 1012.0 |
| 20260503201027 | 24 | 160 | 9.7 | 0.0 | 0.00 | 0.00 | 0.00 | 61 | 1012.0 |
| 20260503200726 | 24 | 160 | 9.7 | 0.0 | 0.00 | 0.00 | 0.00 | 61 | 1012.0 |
| 20260503200423 | 24 | 160 | 9.7 | 0.0 | 0.00 | 0.00 | 0.00 | 61 | 1012.0 |
| 20260503200121 | 24 | 160 | 9.7 | 0.0 | 0.00 | 0.00 | 0.00 | 61 | 1012.0 |
| 20260503195819 | 26 | 160 | 9.7 | 0.0 | 0.00 | 0.00 | 0.00 | 61 | 1012.0 |
| 20260503195516 | 22 | 160 | 9.7 | 0.0 | 0.00 | 0.00 | 0.00 | 61 | 1012.0 |
| 20260503195213 | 22 | 160 | 9.7 | 0.0 | 0.00 | 0.00 | 0.00 | 61 | 1012.0 |
| 20260503194906 | 22 | 160 | 9.7 | 0.0 | 0.00 | 0.00 | 0.00 | 61 | 1012.0 |